Location: Cremona
(45.1170°N, 10.0330°E)
Time: 09:56:52
(UTC+01:00)

ISS - Pass Details

Date: 31 January 2019
Orbit: 403 x 411 km, 51.6° (Epoch: 16 February)

Event Time Altitude Azimuth Distance (km) Brightness Sun altitude
Rises 18:09:44 0° 277° (W) 2,332 1.4 -8.2°
Reaches altitude 10° 18:12:01 10° 290° (WNW) 1,473 -0.1 -8.5°
Maximum altitude 18:14:54 27° 351° (N) 817 -2.4 -9.0°
Enters shadow 18:17:33 12° 50° (NE) 1,385 -1.7 -9.5°
